Regional Weather Roundup
Issued by NWS

Home | Current Version | Previous Version | Text Only | Print | Product List | Glossary On
Versions: 1 2 3 4 5 6 7 8 9 10 11 12 13 14 15 16 17 18 19 20 21 22 23 24 25 26 27 28 29 30 31 32 33 34 35 36 37 38 39 40 41 42 43 44 45 46 47 48 49 50
000
ASUS43 KLOT 060908
RWRIL

ILLINOIS REGIONAL WEATHER ROUNDUP
NATIONAL WEATHER SERVICE CHICAGO/ROMEOVILLE IL
400 AM CDT FRI MAY 06 2016

NOTE: "FAIR" INDICATES FEW OR NO CLOUDS BELOW 12,000 FEET WITH NO
SIGNIFICANT WEATHER AND/OR OBSTRUCTIONS TO VISIBILITY.

* THESE STATIONS ARE NOT UNDER NWS QUALITY CONTROL. THEY ALSO MAY NOT
  REPORT WEATHER SUCH AS PRECIPITATION OR FOG.

ILZ001-002-007-009-015-016-024-061000-
NORTHWEST ILLINOIS

CITY           SKY/WX    TMP DP  RH WIND       PRES   REMARKS
MOLINE         CLEAR     46  40  79 CALM      29.98S
STERLING*      CLEAR     43  43 100 CALM      29.99R
SAVANNA*       CLEAR     46  42  84 CALM      29.97S
$$

ILZ003-004-008-010-011-017-018-061000-
NORTH CENTRAL ILLINOIS

CITY           SKY/WX    TMP DP  RH WIND       PRES   REMARKS
ROCKFORD       CLOUDY    46  40  79 S5        29.99S
FREEPORT*      CLEAR     50  38  62 SW6       29.99S
ROCHELLE*      PTCLDY    43  40  89 CALM      29.99R
DE KALB*       PTCLDY    50  40  70 W8        29.98S
$$

ILZ005-006-012>014-019>023-061000-
NORTHEAST ILLINOIS

CITY           SKY/WX    TMP DP  RH WIND       PRES   REMARKS
CHICAGO-OHARE  CLOUDY    45  40  82 CALM      29.96S
CHICAGO-MIDWAY MOCLDY    48  38  68 CALM      29.96F
AURORA         CLEAR     42  39  89 CALM      29.98R
LANSING*       CLEAR     40  39  99 CALM      29.97F
JOLIET*        CLEAR     42  42  99 CALM      29.98R FOG
WAUKEGAN       CLOUDY    45  40  82 CALM      29.95S
DUPAGE AIRPORT CLEAR     44  39  82 S3        29.97R
KANKAKEE*      CLEAR     42  39  90 CALM      29.99S
WHEELING       CLOUDY    44  39  82 CALM      29.97S
MORRIS*        CLEAR     45  41  87 CALM      29.97S
ROMEOVILLE*    CLEAR     42  40  91 SW3       29.98S
NORTHERLY ISL    N/A     50  38  63 CALM        N/A
NORTHERLY ISL    N/A     50  38  63 CALM        N/A
$$

LMZ740>746-061000-
SOUTHERN LAKE MICHIGAN

STATION/POSITION SKY/WX   TEMP    WIND        PRES    VSBY  WAVE
                          AIR SEA DIR/SP/G                  HT/PER
                          (F)     (DEG/KT/KT) (MB)    (MI)  (FT/S)
SOUTHERN BUOY              42 40  220/  6/  6 1014.4F         1/ 5
WILMETTE HARBOR            46 44  210/  2/  4   N/A           1/ 5
HARRISON CRIB              51        CALM       N/A
BURNHAM HARBOR             50     250/  4/  8   N/A
CALUMET HARBOR             46     210/  3/  5 1014.3F
BURNS HARBOR               44     190/  3/  5 1015.6F
MICHIGAN CITY              42     130/  4/  4   N/A
ST. JOSEPH                 46 47                N/A           1/ 5
$$

ILZ025>027-034>036-040-047-049-050-058-095>099-061000-
WEST-CENTRAL ILLINOIS

CITY           SKY/WX    TMP DP  RH WIND       PRES   REMARKS
QUINCY         CLEAR     47  40  76 SW7       30.02S
GALESBURG*     CLEAR     44  39  82 S5        30.00S
MACOMB*        CLEAR     46  40  81 SW6       30.03S
JACKSONVILLE*  CLEAR     46  40  77 SW3       30.03R
PITTSFIELD*    CLEAR     48  42  80 W5        30.04S
$$

ILZ028>032-037-038-041>044-048-051>054-059>061-061000-
CENTRAL ILLINOIS

CITY           SKY/WX    TMP DP  RH WIND       PRES   REMARKS
PONTIAC        CLEAR     45  42  91 CALM      30.00S
BLOOMINGTON    CLEAR     47  42  82 W7        30.01S
DECATUR        CLEAR     45  41  86 SW3       30.01S
PEORIA         CLEAR     45  40  82 CALM      30.01S
LACON*         CLEAR     45  43  93 CALM      29.99S FOG
LINCOLN*       CLEAR     45  43  94 CALM      30.01S
SPRINGFIELD    CLEAR     44  41  89 CALM      30.02S
TAYLORVILLE    CLEAR     44  43  96 W3        30.02S
$$

ILZ033-039-045-046-055>057-062-063-061000-
EAST-CENTRAL ILLINOIS

CITY           SKY/WX    TMP DP  RH WIND       PRES   REMARKS
CHAMPAIGN      CLEAR     44  41  89 W5        29.99F
RANTOUL*       CLEAR     46  43  89 W5        29.99S
MATTOON        CLEAR     47  41  80 W3        29.99F
PARIS*         CLEAR     44  42  95 CALM      30.00S
$$

ILZ079-100>102-061000-
SOUTHWEST ILLINOIS

CITY           SKY/WX    TMP DP  RH WIND       PRES   REMARKS
ALTON          CLEAR     45  42  88 CALM      30.03S
BELLEVILLE     CLEAR     46  46  99 CALM      30.02S
CAHOKIA*       CLEAR     45  42  89 CALM      30.04R
SPARTA*        CLEAR     48  44  86 W6        30.04S
$$

ILZ064>066-069>071-074>076-080>082-084>086-088>090-092>094-061000-
SOUTH-CENTRAL ILLINOIS

CITY           SKY/WX    TMP DP  RH WIND       PRES   REMARKS
CARBONDALE     CLEAR     44  42  93 CALM      30.03R
CAIRO*         CLEAR     46  46  99 CALM      30.03R
EFFINGHAM*     CLEAR     45  45 100 CALM      30.02S
MARION           N/A     45  45 100 CALM      30.03S FOG
MT. VERNON     CLEAR     43  36  75 CALM      30.02S
CENTRALIA*     CLEAR     46  46  99 CALM      30.02R
SALEM*         CLEAR     47  45  93 CALM      30.02S
METROPOLIS*    CLEAR     46  46 100 CALM      30.02S
$$

ILZ067-068-072-073-078-083-087-091-061000-
SOUTHEAST ILLINOIS

CITY           SKY/WX    TMP DP  RH WIND       PRES   REMARKS
LAWRENCEVILLE  CLEAR     46  44  93 NW6       30.00S
FLORA*         CLEAR     50  45  84 CALM      30.01S
FAIRFIELD*     CLEAR     46  45  95 CALM      30.01R
HARRISBURG*    CLEAR     45  45  98 CALM      30.02S
ROBINSON*      CLEAR     41  40  98 CALM      30.01S
CARMI*         CLEAR     46  45  95 W5        30.00S
$$

ABBREVIATIONS USED IN REMARKS
   TC - TEMPERATURE IN CELSIUS
  WCI - WIND CHILL INDEX
   HX - HEAT INDEX
  VSB - VISIBILITY
$$





USA.gov is the U.S. government's official web portal to all federal, state and local government web resources and services.